www.pogodaiklimat.ru

Погода и климат >> Архив погоды >> Россия >> Ямало-Ненецкий АО >> Харп


ПОГОДА в Харпе

  • Прогноз погоды в Харпе
  • Монитор погоды в Харпе

АРХИВ ПОГОДЫ в Харпе

Время (UTC), дата Ветер
(напр.,м/с)
 
Видим.   Явления Облачность Т
(С)
Тd
(С)
f
(%)
Тe
(С)
Тes
(С)
Комфортность P
(гПа)
Po
(гПа)
Тmin
(С)
Tmax
(С)
R
(мм)
R24
(мм)
S
(см)
18 14.05 ЮВ 2 н/о н/о -4.2 -7.7 77 -8 -8 1035.4 1025.5
21 14.05 Ю 2 н/о н/о -5.1 -8.4 78 -9 -9 1035.0 1025.1
00 15.05 ЮЗ 3 н/о н/о -4.8 -7.6 81 -10 -10 1034.5 1024.6
03 15.05 ЮЗ 3 н/о н/о -3.5 -7.2 76 -9 -9 1033.1 1023.2 -5.2
06 15.05 ЮЗ 3 н/о н/о +0.2 -6.2 62 -4 -4 1031.4 1021.7
09 15.05 ЮЗ 3 н/о н/о +2.5 -5.7 55 -1 -1 1030.1 1020.5
12 15.05 ЮЗ 3 н/о н/о +4.2 -5.9 48 +1 +1 1028.5 1019.0
15 15.05 ЮЗ 2 н/о н/о +4.4 -5.5 49 +2 +2 1027.0 1017.4 +4.6
18 15.05 ЮЗ 1 н/о н/о -1.2 -5.7 71 -3 -3 1026.4 1016.7
21 15.05 штиль 0 н/о н/о -4.5 -6.8 84 -5 -5 1025.3 1015.4
00 16.05 штиль 0 н/о н/о -3.6 -6.9 78 -5 -5 1023.2 1013.5
03 16.05 ЮВ 2 н/о н/о +1.9 -5.6 58 -1 -1 1021.1 1011.6 -5.9
06 16.05 ЮВ 2 н/о н/о +5.5 -4.7 48 +4 +4 1019.4 1010.0
09 16.05 СЗ 1 н/о н/о +6.5 -4.6 45 +6 +6 1018.0 1008.6
12 16.05 С 1 н/о н/о +7.7 -5.2 40 +8 +8 1016.5 1007.2
15 16.05 С 3 н/о н/о +4.1 +0.3 76 +1 +1 1015.7 1006.3 +7.8
18 16.05 С 5 н/о н/о +2.0 -0.1 86 -4 -4 1013.9 1004.5
21 16.05 С 6
{10}
н/о н/о +0.9 -0.8 88 -6 -6 1011.8 1002.3
00 17.05 С 6
{11}
н/о н/о +0.9 -0.9 88 -6 -6 1009.9 1000.4
03 17.05 С 4
{10}
н/о н/о +0.9 -0.6 90 -4 -4 1008.9 999.4 +0.8
06 17.05 СВ 3 н/о н/о +1.5 -0.4 87 -3 -3 1007.6 998.2
09 17.05 В 3 н/о н/о +2.8 +1.0 88 -1 -1 1006.9 997.5
12 17.05 В 3 н/о н/о +4.2 +1.8 84 +1 +1 1005.9 996.6
15 17.05 В 3 н/о н/о +4.1 +1.0 80 +1 +1 1005.7 996.4 +4.6
18 17.05 В 3 н/о н/о +2.7 +0.2 84 -1 -1 1004.5 995.1
21 17.05 В 5
{11}
н/о н/о +1.2 -0.6 88 -5 -5 1002.5 993.1
00 18.05 СВ 7-13
{13}
н/о н/о +0.9 -1.0 87 -6 -6 1000.5 991.1
03 18.05 В 8-15
{15}
н/о н/о +1.5 -0.7 85 -6 -6 999.3 989.9 +0.9
06 18.05 В 7-13
{15}
н/о н/о +1.5 -0.5 87 -5 -5 999.6 990.2
09 18.05 В 6-13
{13}
н/о н/о +1.5 -0.5 87 -5 -5 1001.0 991.6
12 18.05 В 5
{13}
н/о н/о +1.7 -0.2 87 -4 -4 1003.3 993.9
15 18.05 СВ 6-11
{13}
н/о н/о +2.6 -0.5 80 -3 -3 1004.8 995.4 +2.5
18 18.05 В 6-12
{12}
н/о н/о +2.7 -2.0 71 -3 -3 1004.8 995.4
21 18.05 СВ 6-11
{12}
н/о н/о +1.6 -3.1 71 -4 -4 1005.6 996.2
00 19.05 СВ 6-10
{11}
н/о н/о +2.9 -4.1 60 -2 -2 1006.1 996.7
03 19.05 СВ 7-12
{15}
н/о н/о +4.8 -4.2 52 -0 -0 1006.0 996.7 +1.4
06 19.05 СВ 7-11
{16}
н/о н/о +6.1 -4.3 47 +2 +2 1006.4 997.1
09 19.05 С 8-15
{15}
н/о н/о +6.5 -5.1 43 +2 +2 1006.6 997.4
12 19.05 С 9-16
{16}
н/о н/о +6.2 -6.7 39 +1 +1 1006.7 997.4
15 19.05 С 7-12
{16}
н/о н/о +4.4 -6.1 46 -1 -1 1006.3 996.9 +6.8 3
18 19.05 С 7-11
{14}
н/о н/о +3.3 -6.1 50 -2 -2 1005.9 996.6
21 19.05 С 6
{14}
н/о н/о +2.4 -4.5 60 -3 -3 1005.5 996.1
00 20.05 С 6-12
{13}
н/о н/о +2.3 -6.3 53 -3 -3 1004.9 995.5
03 20.05 С 8-14
{14}
н/о н/о +2.8 -7.3 47 -3 -3 1004.6 995.3 +2.0
06 20.05 С 8-14
{15}
н/о н/о +3.2 -6.2 50 -3 -3 1004.9 995.5
09 20.05 С 8-14
{16}
н/о н/о +3.5 -6.0 50 -2 -2 1006.3 996.9
12 20.05 С 7-12
{15}
н/о н/о +3.0 -6.8 49 -2 -2 1007.3 997.9
15 20.05 С 8-13
{15}
н/о н/о +2.9 -6.2 51 -3 -3 1008.0 998.6 +3.6

 

Местоположение метеостанции Харп (Ямало-Ненецкий АО, Россия): широта 66.80 долгота 65.78 высота над уровнем моря 76 м.

В архиве по умолчанию представлена погода в Харпе за последнюю неделю. Архивные данные за месяц целиком и за предыдущие месяцы, начиная с января 2011 года, Вы можете получить, выбрав интересующий диапазон дат из раскрывающегося списка и нажав кнопку "Ввод!".


*Определитесь, кто Вы:
робот инопланетянин человек

Внимание! Время в таблицах - всемирное. Для получения местного времени необходимо прибавить поправку, которая равна 5 ч.

Смотрите также архив погоды в соседних городах и на ближайших метеорологических станциях:

Погода в Салехарде (Ямало-Ненецкий АО, Россия) (49 км)
Погода в Елецкой (Коми, Россия) (80 км)
Погода в Белоярске (Ямало-Ненецкий АО, Россия) (103 км)
Погода в Питляре (Ямало-Ненецкий АО, Россия) (108 км)
Погода в Воркуте (Коми, Россия) (109 км)
Погода в Полуе (Ямало-Ненецкий АО, Россия) (155 км)
Погода в Мужах (Ямало-Ненецкий АО, Россия) (165 км)
Погода в Петруни (Коми, Россия) (225 км)
Погода в Харуте (Ненецкий АО, Россия) (274 км)
Погода в Усть-Каре (Ненецкий АО, Россия) (275 км)

Пояснения к столбцам:

Ветер - указаны скорость ветра в м/с - средняя за 10 мин, порывы в срок и между сроками (в фигурных скобках) и направление, откуда дует ветер: С - северный, СВ - северо-восточный, В - восточный, ЮВ - юго-восточный, Ю - южный, ЮЗ - юго-западный, З - западный, СЗ - северо-западный.
Видимость - горизонтальная дальность видимости в метрах или километрах. При видимости от 1 до 10 км при отсутствии осадков обычно наблюдается дымка, при ухудшении видимости до 1 км и менее - туман. В сухую погоду видимость может ухудшаться дымом, пылью или мглою.
Явления - указаны атмосферные явления, наблюдавшиеся в срок или в последний час перед сроком; фигурными скобками обозначены явления, наблюдавшиеся между сроками (за 1-3 часа до срока); квадратными скобками обозначены град или гололедные отложения с указанием их диаметра в мм.
Облачность - указаны через наклонную черту общая и нижняя облачность в баллах и высота нижней границы облаков в метрах; квадратными скобками обозначены формы облаков: Ci - перистые, Cs - перисто-слоистые, Cc - перисто-кучевые, Ac - высококучевые, As - высокослоистые, Sc - слоисто-кучевые, Ns - слоисто-дождевые, Cu - кучевые, Cb - кучево-дождевые. Подробнее классификацию облаков см. в Атласе облаков (PDF).
T - Температура воздуха - температура, измеренная на высоте 2 м над землей.
Td - Температура точки росы - температура, при понижении до которой содержащийся в воздухе водяной пар достигнет насыщения.
f - Относительная влажность воздуха - влажноcть воздуха, измеренная на высоте 2 м над землей.
Te - Эффективная температура - температура, которую ощущает одетый по сезону человек в тени. Характеристика душности погоды. При расчете учитывается влияние влажности воздуха и скорости ветра на теплоощущения человека.
Tes - Эффективная температура на солнце - температура, которую ощущает человек, с поправкой на солнечный нагрев. Характеристика знойности погоды. Зависит от высоты солнца над горизонтом, облачности и скорости ветра. Ночью, в пасмурную погоду, а также при ветре 12 м/с и более поправка равна нулю.
P - Атмосферное давление - приведенное к уровню моря атмосферное давление.
Po - Атмосферное давление - измеренное на уровне метеостанции атмосферное давление.
Tmin - Минимальная температура - минимум температуры воздуха на высоте 2 м над землей.
Tmax - Максимальная температура - максимум температуры воздуха на высоте 2 м над землей.
R - Количество осадков - Количество выпавших осадков за период времени, мм. При наведении курсора мыши на число - период времени, за который выпало указанное количество осадков.
R24 - Количество осадков - Количество выпавших осадков за 24 часа, мм.
S - Снежный покров - Высота снежного покрова, см. При наведении курсора мыши на число - состояние снежного покрова и степень покрытия местности в баллах.